Wind_Speed
34 35 36 37 37 39 40 41 42 43 44 45 47 48 49 51 52 53 54 55 56 57 57 59 60 60 61 62 63 63 62 62 61 61 61 59 58 57 56 55 53 52 50
34 35 36 36 37 38 39 40 41 42 43 44 45 46 47 48 50 51 52 54 55 56 57 58 59 60 61 62 63 63 63 62 62 62 62 61 59 58 57 56 55 53 52
34 34 35 36 36 37 37 38 40 41 42 43 43 44 45 47 49 51 53 54 55 56 56 56 57 58 59 61 62 63 63 62 62 61 62 61 60 59 58 58 57 55 54
34 34 35 36 36 37 37 38 40 41 42 42 43 45 46 47 49 51 52 54 56 57 57 56 57 58 58 59 60 61 61 61 62 61 62 62 61 61 59 58 57 56 56
34 35 36 36 37 38 38 39 40 41 42 42 44 44 46 47 49 50 51 53 55 56 56 56 56 56 57 57 58 59 59 59 60 60 60 61 61 60 59 57 56 56 55
35 36 37 37 38 39 39 40 41 41 43 43 43 44 45 46 48 49 50 52 54 55 55 55 55 56 56 56 57 57 57 58 58 58 59 59 59 58 57 56 55 55 55
36 36 38 38 39 39 40 41 42 43 43 44 44 45 46 47 48 49 50 51 52 54 55 55 55 55 56 56 56 55 56 57 57 55 56 58 58 57 56 56 55 54 54
37 38 38 39 40 40 41 42 42 43 44 44 45 46 46 47 48 49 49 49 50 51 53 53 54 54 54 54 54 54 55 56 56 54 53 55 56 56 54 54 54 54 54
38 38 39 40 40 41 41 42 42 43 45 46 47 47 47 47 47 47 47 48 49 51 51 52 51 52 52 52 53 53 53 55 55 53 52 52 52 53 53 53 54 53 52
39 39 40 40 41 41 42 43 43 44 45 46 47 47 47 47 46 46 47 47 49 49 50 49 50 50 50 50 51 51 52 53 54 53 51 49 50 51 52 53 52 52 50
39 40 40 41 42 42 44 44 45 45 46 47 47 47 47 46 45 45 45 46 47 47 49 49 49 49 49 48 48 48 49 51 53 53 51 49 49 50 51 52 51 50 50
39 40 41 42 43 44 45 46 46 46 47 48 47 46 46 44 44 44 44 44 45 45 46 46 47 47 47 47 47 47 47 49 51 52 50 48 48 49 50 51 50 49 48
39 40 41 42 43 44 46 46 46 46 47 47 46 45 44 43 43 42 42 42 42 42 42 43 43 44 44 44 44 46 46 47 48 48 47 46 47 47 49 50 49 47 47
41 41 42 43 44 45 46 46 46 46 47 47 46 45 43 42 42 41 41 40 40 40 40 40 40 40 41 41 41 43 44 45 46 45 45 45 45 46 47 47 47 46 44
41 42 43 44 45 46 46 46 46 46 47 47 46 44 42 41 40 40 39 39 38 38 37 36 35 36 37 38 39 40 41 42 44 44 43 43 42 43 44 44 45 45 43
41 43 44 45 46 47 46 45 46 46 47 46 44 42 40 39 38 37 37 37 36 35 34 33 33 33 34 35 35 36 37 40 42 42 40 40 40 41 43 43 43 43 41
43 43 45 45 46 46 45 45 46 47 46 45 42 40 38 37 35 34 34 34 33 32 31 30 29 29 30 31 33 34 36 38 39 40 38 38 40 40 40 40 41 41 40
43 43 44 45 46 45 45 46 45 46 45 43 40 38 36 34 33 33 32 31 30 28 28 26 27 27 27 29 30 32 34 35 36 37 36 37 38 38 38 39 40 40 39
43 43 44 45 45 45 45 45 45 44 44 41 38 35 34 32 31 30 29 29 27 25 24 24 24 24 25 27 28 30 31 33 34 34 35 37 36 36 36 37 38 38 38
44 44 44 45 45 45 44 44 43 42 41 39 36 34 32 31 30 29 28 27 25 23 22 21 20 21 21 23 26 28 30 31 31 32 33 34 34 34 35 35 35 35 36
44 45 45 44 44 44 44 42 41 40 38 37 34 32 31 30 28 28 27 25 24 22 21 20 20 19 20 23 25 26 27 28 29 30 31 32 33 32 32 33 33 33 34
44 45 44 43 43 43 42 41 40 38 35 34 32 31 29 28 28 26 24 23 22 22 20 18 18 18 18 18 22 24 24 27 28 29 29 29 30 30 31 32 32 32 33
44 43 42 41 41 42 41 39 37 36 34 33 31 29 27 26 26 24 22 21 21 20 19 18 16 16 17 18 19 21 23 24 26 28 28 28 28 29 30 31 31 31 31
42 41 40 40 40 40 39 37 36 35 33 32 31 30 27 25 24 23 21 20 19 18 17 16 14 14 14 15 18 20 22 23 25 25 27 27 26 27 28 29 29 29 27
41 40 40 40 40 39 38 36 36 35 34 33 32 30 27 26 24 22 21 20 19 18 16 14 12 11 12 14 16 19 21 23 24 25 25 25 24 25 26 26 25 25 25
40 40 40 40 39 38 37 36 36 36 35 33 31 29 27 25 23 21 19 17 16 14 13 12 11 12 13 15 15 18 19 21 22 23 23 24 23 24 24 24 23 24 22
Wind_Direction
291 291 291 289 288 287 285 284 283 282 280 275 272 271 270 268 266 267 266 266 265 264 263 262 261 260 259 258 257 256 255 256 256 256 256 256 256 255 255 255 253 253 255
291 292 293 293 292 291 288 286 286 284 281 279 275 273 272 270 269 269 268 266 265 266 265 264 264 263 261 260 258 256 255 255 255 255 255 254 253 254 254 253 253 253 253
292 293 294 295 294 293 291 289 288 286 284 281 277 275 274 273 272 270 268 267 265 266 266 266 265 264 263 261 259 256 255 254 254 254 255 254 253 253 252 252 252 252 252
293 295 295 295 295 294 293 292 292 289 287 284 282 280 278 277 276 274 270 268 267 267 268 267 266 265 263 261 259 256 255 254 254 254 254 254 254 253 250 250 250 251 250
295 295 295 295 295 295 295 295 295 292 290 288 288 285 282 281 279 277 274 271 269 269 267 266 266 265 264 262 260 257 255 255 255 254 253 253 252 251 250 249 248 249 249
296 296 296 295 296 297 296 296 296 295 293 292 292 290 287 285 281 279 277 275 272 270 268 268 266 265 264 262 259 258 255 253 253 253 253 251 251 250 250 248 247 246 247
297 298 297 297 297 298 297 296 297 297 296 294 293 292 290 288 285 282 279 276 273 271 269 268 266 265 264 262 259 257 254 252 251 252 251 250 250 249 248 247 246 246 245
299 300 300 299 299 298 298 298 297 298 298 298 296 295 292 290 287 284 281 278 275 273 271 270 266 265 263 262 259 257 253 251 250 250 250 250 248 248 247 246 246 246 245
301 301 301 301 301 301 300 300 300 299 299 300 299 297 293 291 288 285 282 280 277 275 273 270 267 266 264 262 259 256 253 250 247 247 248 249 248 246 246 245 245 246 245
299 301 303 303 303 303 303 303 301 301 302 301 300 297 295 292 290 287 284 280 278 275 273 271 269 267 265 263 259 256 252 248 245 244 245 247 248 245 244 244 244 244 244
300 301 304 304 305 304 304 304 303 302 303 302 300 298 295 293 291 289 286 283 279 276 274 271 269 267 264 261 258 255 251 246 244 243 244 246 245 243 243 242 242 243 243
302 302 304 305 305 305 306 305 304 304 304 303 301 298 296 294 292 291 290 286 282 279 276 273 269 266 262 259 257 252 250 246 244 242 243 244 244 242 241 241 241 241 241
302 303 304 305 306 306 306 306 306 306 305 304 302 299 297 295 293 293 291 287 284 280 277 274 269 265 261 257 255 251 248 246 243 241 241 242 242 240 240 239 239 239 240
304 305 306 306 306 307 307 307 307 307 306 305 303 300 297 295 294 293 292 289 285 281 278 274 269 263 258 256 255 250 247 244 240 239 239 240 240 239 237 236 237 238 239
305 306 306 306 307 308 309 307 307 307 307 306 304 301 297 295 295 293 292 289 285 282 279 274 269 263 258 255 253 249 246 241 236 236 237 237 236 235 234 234 236 237 239
304 306 306 306 307 308 308 307 308 308 308 307 304 301 297 295 295 294 293 290 287 283 279 274 268 263 257 253 251 247 243 239 234 232 232 233 233 232 231 232 235 236 237
305 306 306 307 309 308 308 309 309 309 309 307 305 302 300 296 296 295 294 292 290 285 280 275 268 263 255 250 247 243 238 233 230 229 230 232 231 230 230 232 233 233 235
304 306 308 308 309 308 308 310 311 311 310 309 305 303 300 297 296 295 294 293 292 287 282 275 269 263 254 249 245 239 233 227 226 228 229 228 227 227 228 229 229 229 231
305 307 308 309 310 310 310 310 311 311 311 309 305 303 301 300 298 296 295 295 291 286 281 277 272 264 255 248 241 236 231 227 228 229 229 226 226 226 227 227 226 228 230
304 306 307 308 309 310 311 311 312 312 312 310 306 303 301 301 299 297 297 295 290 285 280 278 272 263 253 245 238 235 230 228 228 226 225 224 224 226 226 227 229 231 232
304 305 307 307 308 309 310 311 312 312 312 311 308 303 300 301 301 299 297 293 289 284 279 272 267 259 252 244 237 232 227 224 221 219 219 221 223 224 226 227 230 231 231
304 305 306 306 308 309 309 310 311 311 311 310 309 305 302 300 300 298 296 292 288 284 278 273 264 254 248 241 231 224 221 218 217 215 214 218 221 222 224 225 227 229 232
303 304 305 307 308 309 310 310 311 310 310 308 308 307 303 301 300 297 293 290 286 281 276 270 262 249 242 234 224 218 215 214 213 211 211 215 219 220 222 223 225 227 230
302 303 304 306 307 309 310 309 309 309 306 305 307 306 304 301 298 296 292 288 284 279 275 270 259 245 235 227 221 216 214 213 211 212 213 216 220 222 224 224 223 224 227
301 303 304 305 307 308 308 306 307 307 306 306 306 305 302 300 296 293 290 286 283 280 272 265 254 242 233 227 222 216 214 215 215 215 217 218 221 220 220 220 220 221 223
300 302 303 305 305 306 306 305 305 306 306 306 305 304 301 298 294 289 284 281 277 271 265 256 246 236 229 224 219 215 214 215 215 215 215 216 215 216 218 218 219 219 220
Height
5692 5689 5687 5684 5681 5679 5676 5674 5672 5670 5668 5667 5667 5667 5668 5669 5669 5670 5670 5671 5671 5672 5674 5676 5679 5681 5684 5687 5691 5694 5698 5701 5705 5709 5713 5717 5721 5725 5730 5733 5737 5741 5744
5683 5681 5678 5675 5672 5669 5666 5664 5662 5659 5657 5655 5655 5655 5655 5655 5656 5656 5656 5656 5657 5657 5658 5661 5663 5665 5667 5670 5673 5676 5680 5684 5688 5692 5695 5700 5706 5710 5714 5719 5723 5728 5732
5675 5673 5670 5666 5663 5660 5657 5654 5652 5649 5647 5645 5644 5643 5642 5642 5642 5642 5641 5641 5642 5642 5643 5644 5646 5648 5650 5653 5656 5659 5663 5667 5671 5674 5679 5684 5690 5695 5700 5704 5709 5714 5718
5668 5665 5662 5659 5655 5652 5648 5645 5642 5639 5636 5634 5632 5631 5629 5629 5628 5627 5627 5627 5627 5627 5628 5628 5630 5632 5633 5636 5639 5642 5645 5650 5654 5658 5662 5668 5673 5679 5685 5690 5694 5699 5704
5660 5657 5654 5651 5647 5643 5640 5636 5633 5629 5626 5624 5621 5619 5617 5616 5614 5612 5612 5612 5612 5612 5612 5612 5613 5615 5617 5619 5622 5625 5629 5633 5637 5642 5646 5651 5656 5661 5667 5674 5680 5685 5690
5652 5649 5645 5642 5639 5635 5631 5627 5623 5620 5616 5613 5610 5606 5604 5602 5600 5599 5597 5596 5596 5596 5596 5596 5598 5599 5601 5603 5605 5608 5612 5616 5621 5625 5630 5635 5641 5647 5651 5658 5664 5670 5676
5644 5641 5637 5633 5630 5626 5622 5618 5614 5610 5606 5602 5598 5594 5591 5588 5586 5584 5582 5581 5580 5580 5580 5581 5582 5583 5585 5586 5589 5592 5596 5600 5604 5609 5615 5620 5626 5632 5636 5642 5648 5654 5661
5635 5632 5628 5624 5620 5616 5612 5608 5604 5600 5595 5591 5587 5583 5579 5575 5573 5570 5568 5566 5565 5565 5565 5565 5565 5566 5568 5570 5573 5576 5580 5584 5589 5594 5600 5605 5611 5617 5622 5628 5633 5639 5646
5627 5623 5619 5615 5610 5606 5602 5597 5593 5589 5584 5579 5575 5571 5567 5563 5559 5556 5554 5552 5550 5549 5549 5549 5549 5550 5552 5554 5557 5560 5564 5569 5574 5580 5586 5591 5597 5603 5608 5614 5620 5626 5633
5618 5614 5610 5606 5601 5596 5592 5587 5582 5577 5572 5567 5563 5558 5554 5550 5546 5543 5540 5538 5535 5534 5533 5533 5533 5535 5536 5538 5541 5544 5549 5554 5560 5565 5571 5577 5583 5589 5595 5601 5607 5613 5620
5608 5605 5601 5596 5591 5587 5582 5577 5571 5566 5561 5556 5551 5546 5542 5537 5533 5530 5527 5523 5521 5518 5517 5517 5518 5519 5521 5523 5526 5529 5534 5539 5545 5551 5557 5564 5569 5575 5582 5588 5594 5601 5607
5599 5595 5591 5586 5582 5577 5571 5566 5560 5555 5549 5544 5538 5534 5529 5525 5521 5517 5513 5509 5506 5504 5502 5502 5502 5504 5506 5508 5511 5515 5520 5525 5531 5538 5544 5551 5556 5563 5569 5576 5582 5589 5596
5590 5586 5582 5577 5572 5567 5561 5555 5549 5544 5538 5532 5526 5521 5517 5512 5508 5505 5501 5497 5493 5491 5489 5488 5488 5489 5491 5494 5497 5501 5507 5513 5519 5526 5532 5539 5544 5551 5557 5564 5571 5578 5585
5581 5576 5572 5567 5562 5557 5551 5545 5539 5533 5527 5521 5515 5510 5505 5501 5497 5493 5489 5485 5482 5479 5477 5475 5475 5476 5478 5482 5485 5488 5494 5500 5507 5514 5521 5527 5533 5540 5546 5553 5561 5568 5574
5571 5567 5562 5557 5552 5547 5541 5535 5529 5522 5516 5509 5503 5498 5494 5490 5486 5483 5479 5475 5471 5468 5466 5464 5464 5464 5467 5470 5473 5476 5481 5488 5496 5503 5510 5517 5523 5530 5536 5543 5551 5557 5564
5563 5558 5553 5547 5542 5536 5530 5525 5518 5512 5505 5498 5492 5487 5483 5480 5476 5473 5469 5465 5462 5459 5456 5455 5454 5455 5458 5460 5462 5466 5471 5478 5486 5494 5501 5507 5513 5520 5527 5534 5541 5548 5554
5554 5549 5543 5538 5532 5526 5520 5514 5508 5501 5494 5488 5482 5477 5473 5470 5467 5463 5460 5456 5453 5450 5449 5447 5447 5448 5450 5451 5454 5458 5462 5469 5477 5484 5491 5498 5505 5511 5518 5525 5531 5539 5545
5544 5539 5534 5528 5523 5517 5511 5505 5498 5491 5485 5478 5473 5468 5464 5461 5458 5455 5452 5448 5446 5443 5441 5440 5440 5441 5443 5445 5447 5450 5455 5462 5469 5476 5483 5490 5497 5503 5510 5517 5524 5531 5538
5534 5529 5524 5519 5513 5507 5501 5495 5489 5482 5475 5470 5464 5460 5457 5454 5451 5447 5445 5441 5439 5437 5436 5435 5434 5435 5436 5438 5441 5444 5449 5455 5462 5469 5476 5482 5489 5496 5502 5509 5516 5523 5530
5525 5520 5515 5510 5504 5498 5492 5486 5480 5473 5467 5461 5456 5453 5449 5446 5443 5440 5438 5435 5433 5432 5431 5430 5430 5430 5431 5433 5435 5439 5443 5449 5455 5462 5469 5475 5482 5489 5495 5502 5509 5516 5523
5515 5510 5505 5500 5494 5488 5482 5477 5471 5465 5459 5454 5449 5446 5442 5439 5436 5434 5431 5429 5427 5426 5426 5425 5425 5425 5427 5428 5431 5435 5439 5444 5450 5457 5463 5470 5477 5483 5489 5495 5502 5509 5515
5505 5500 5495 5490 5484 5478 5473 5468 5462 5457 5452 5448 5444 5440 5436 5433 5430 5428 5426 5424 5423 5422 5421 5421 5422 5422 5423 5425 5427 5431 5435 5441 5446 5453 5459 5465 5471 5477 5483 5489 5495 5501 5507
5495 5490 5485 5480 5475 5469 5464 5459 5455 5450 5446 5442 5439 5435 5431 5427 5424 5422 5421 5419 5418 5417 5417 5418 5418 5419 5420 5422 5424 5428 5433 5438 5443 5449 5455 5461 5466 5472 5477 5483 5489 5495 5501
5485 5480 5476 5472 5467 5462 5456 5451 5447 5443 5439 5436 5433 5429 5425 5422 5420 5417 5415 5414 5413 5413 5413 5413 5414 5415 5417 5419 5422 5425 5430 5435 5440 5445 5451 5456 5461 5467 5472 5478 5483 5489 5495
5476 5471 5467 5463 5458 5454 5449 5444 5439 5436 5433 5429 5426 5422 5419 5417 5414 5412 5410 5409 5408 5407 5408 5409 5410 5412 5414 5416 5419 5423 5428 5432 5437 5442 5447 5452 5457 5462 5468 5473 5478 5484 5489
5466 5462 5458 5454 5450 5445 5441 5437 5432 5429 5425 5422 5419 5415 5412 5410 5408 5406 5406 5404 5403 5403 5404 5405 5407 5409 5411 5414 5417 5420 5424 5429 5433 5438 5443 5448 5453 5458 5463 5469 5474 5479 5485